Wind_Speed
26 27 29 30 31 32 33 33 34 35 36 36 37 38 38 39 40 41 42 41 40 40 39 39 39 40 40 41 42 41 41 42 41 41 41 41 40 40 40 40 39 40 41 42 42 41 39 40 42 43 44 44 43 42 41 41 43 45 45 46 46 46 46 46 46 47 48 50 52 55 59 60 59 57 56 55 57 59 60 59 58 60 61 60 61 55 47
23 24 26 27 29 30 31 32 33 34 34 35 36 36 37 38 38 40 41 39 38 38 38 39 39 40 40 40 40 40 40 40 40 40 40 39 40 41 41 41 40 40 41 42 43 42 40 41 44 45 45 47 48 47 46 46 47 48 48 49 49 50 49 49 49 49 50 52 54 56 60 62 60 58 57 57 59 62 62 62 61 60 60 60 60 54 47
23 24 25 26 27 28 29 30 31 32 33 33 34 34 35 35 36 38 39 38 37 37 38 39 39 39 39 39 38 38 39 40 40 40 40 39 39 41 41 41 41 42 43 43 43 43 43 43 45 47 47 48 50 52 52 51 51 52 52 51 52 52 52 52 52 52 52 53 56 57 59 62 61 59 59 60 63 64 65 65 63 61 60 61 59 54 50
24 24 25 26 26 27 28 29 30 31 31 32 32 33 33 34 36 38 38 38 37 37 37 37 37 37 37 37 37 37 38 40 40 41 42 40 39 41 42 42 43 44 45 45 44 45 46 46 46 47 48 49 52 55 56 55 54 54 54 54 54 55 55 55 55 55 55 56 57 58 60 61 61 61 61 63 66 68 69 68 65 63 63 61 59 57 54
24 25 26 27 27 27 28 29 30 31 32 32 32 33 33 34 36 37 37 36 36 35 35 34 34 35 35 36 37 39 39 40 41 42 43 42 42 43 43 42 43 45 46 47 47 47 48 48 47 47 49 50 53 57 59 58 56 55 55 55 56 56 57 57 58 58 59 60 60 60 61 61 62 62 63 65 68 70 71 70 67 67 67 62 59 62 61
24 25 26 27 28 28 28 29 30 31 32 32 32 33 33 33 34 35 35 35 34 34 33 34 35 36 36 36 37 39 39 40 42 43 45 46 46 45 44 43 44 46 49 49 49 49 49 50 50 50 51 52 54 57 60 60 58 57 57 57 57 58 59 61 62 62 63 64 63 63 63 63 63 63 64 66 70 71 71 70 69 71 72 67 63 66 65
23 23 24 25 26 27 28 29 30 31 32 32 32 32 32 31 32 32 34 35 34 34 35 35 36 37 37 37 38 40 40 41 43 45 47 49 50 49 47 46 46 47 50 52 52 50 50 52 53 53 53 54 56 58 61 62 61 60 61 61 62 62 62 64 64 63 64 66 66 66 66 65 63 63 65 68 70 71 71 71 71 73 74 72 69 67 65
24 24 24 25 25 26 26 27 28 29 30 30 30 30 30 31 32 33 35 36 36 36 37 38 39 39 39 39 41 42 43 44 45 47 48 50 53 53 52 50 50 50 51 53 53 53 53 54 56 56 56 57 58 59 61 64 64 64 64 64 65 66 66 66 66 65 65 66 67 68 69 68 64 63 65 68 69 70 73 74 75 75 75 73 71 68 66
26 26 26 27 27 27 27 27 28 28 29 29 30 30 31 33 35 36 37 38 38 39 40 40 41 41 42 43 45 46 47 47 47 49 51 51 54 57 56 55 54 54 54 54 55 56 56 57 58 58 57 58 59 60 61 64 66 67 67 67 67 68 68 69 69 68 66 67 68 69 71 70 66 64 67 70 71 72 74 75 76 76 75 73 72 70 68
28 28 28 29 29 30 30 30 30 31 31 31 32 33 34 36 37 38 40 41 41 42 43 44 43 44 45 46 49 50 51 50 49 51 54 55 56 58 59 58 57 57 58 57 57 58 59 60 60 59 58 58 60 61 63 65 66 68 70 71 71 72 72 72 72 71 69 69 68 68 71 70 65 65 69 73 75 76 75 75 76 76 75 75 74 73 71
30 30 30 30 31 31 32 32 33 34 35 35 36 36 37 39 40 41 43 45 45 45 47 47 47 47 48 50 53 54 53 53 53 53 56 58 60 60 60 59 59 59 59 59 58 59 62 63 62 61 60 59 60 62 65 67 68 70 72 73 73 75 75 75 74 73 72 71 69 69 69 65 62 66 72 74 75 76 76 76 77 77 77 76 76 75 74
33 33 32 32 32 33 33 33 34 36 37 38 39 40 41 42 43 44 45 48 49 49 50 50 50 51 53 54 56 56 55 55 55 56 58 60 62 62 61 60 59 59 59 60 60 61 62 63 64 64 64 63 63 64 66 68 70 72 73 73 72 73 76 77 76 75 73 71 71 70 65 60 62 67 70 72 73 75 76 78 78 78 77 78 77 76 75
38 37 36 36 36 36 36 36 36 37 38 40 41 42 43 44 46 47 48 50 52 52 52 53 54 55 56 57 58 59 59 58 58 58 59 61 62 62 62 62 61 61 61 61 62 63 63 64 65 66 68 67 67 67 68 68 69 71 73 74 73 72 73 75 74 73 72 70 69 67 61 58 61 64 66 69 73 75 77 78 78 77 77 78 78 77 76
41 41 41 40 40 40 40 40 41 41 42 43 44 44 45 46 47 49 50 52 54 54 54 55 57 58 59 60 60 61 61 61 60 60 60 62 63 63 63 63 63 63 64 63 63 63 64 65 66 67 68 70 69 68 68 68 68 70 72 73 73 70 69 69 69 68 68 68 66 64 59 55 57 61 64 68 71 74 76 76 76 76 76 77 77 77 77
45 45 44 44 44 45 45 45 45 45 46 47 48 48 48 48 50 51 52 54 56 55 54 56 58 60 62 62 62 62 62 62 62 62 62 63 63 63 64 64 64 65 65 64 64 64 65 67 67 68 69 70 70 68 68 67 67 68 69 69 69 68 66 65 66 65 65 66 64 61 57 54 54 58 62 64 67 70 71 73 73 73 74 75 75 75 74
47 48 48 48 48 49 49 49 49 50 50 51 52 53 52 52 53 54 55 56 58 57 56 56 58 61 63 64 64 63 62 63 63 64 64 64 64 65 65 65 65 65 65 64 65 65 66 67 68 69 70 70 70 68 66 65 64 65 66 66 66 67 65 64 64 64 63 63 62 60 57 54 53 55 58 62 65 67 68 69 68 67 69 70 70 70 70
50 50 51 51 52 52 53 53 53 53 54 54 55 56 56 56 56 57 58 58 60 60 57 57 59 62 63 64 64 64 63 64 65 64 65 66 66 67 68 67 66 66 66 65 65 65 66 67 69 70 71 71 70 66 63 62 61 62 64 66 65 65 63 62 62 63 62 61 60 58 56 53 52 54 57 60 62 64 65 66 63 62 64 65 65 66 66
53 53 53 54 55 55 56 57 57 57 57 58 58 58 59 60 59 60 60 61 62 62 59 58 61 62 63 64 65 65 65 65 65 65 65 66 67 69 71 70 69 69 68 67 66 65 66 67 68 69 70 70 69 65 62 61 59 60 63 65 65 64 62 60 60 61 60 60 59 57 55 53 52 54 57 59 60 62 63 62 59 58 60 61 61 61 61
56 56 57 57 58 58 59 60 60 60 60 60 61 61 62 62 62 62 62 62 63 63 61 60 62 63 63 64 65 66 66 66 66 65 66 66 67 69 71 71 70 71 70 69 68 67 66 66 67 68 68 67 65 63 61 60 60 60 60 62 64 64 61 60 59 58 58 59 59 57 56 55 53 53 57 58 59 60 60 58 57 57 56 57 57 58 58
59 59 60 60 61 61 62 62 62 63 63 63 63 63 64 64 64 64 63 63 64 64 62 62 63 64 64 65 66 67 68 68 67 66 66 67 68 69 70 70 70 70 70 70 70 69 67 67 67 66 64 63 62 61 60 59 60 60 59 60 61 62 61 60 59 57 56 57 58 57 57 57 55 54 55 56 56 56 55 55 56 56 55 55 56 57 59
61 62 62 62 63 63 64 64 64 65 65 65 65 65 65 66 66 65 65 64 65 65 64 64 64 64 65 66 67 68 68 69 68 67 67 67 68 69 70 70 70 69 69 69 70 69 68 67 66 64 61 59 59 59 59 57 58 60 60 59 59 59 59 60 59 58 57 56 56 56 56 57 56 55 54 53 53 53 53 53 54 55 54 54 54 56 59
62 63 63 64 64 64 65 65 65 66 66 66 66 66 66 67 67 67 66 66 66 66 66 66 66 66 66 67 68 68 68 69 69 68 68 68 69 69 69 71 71 70 69 68 67 67 66 65 64 61 60 59 58 58 57 55 56 59 61 60 57 56 56 57 57 58 57 54 54 56 57 57 56 54 52 52 52 53 54 54 54 55 54 54 54 56 58
63 63 64 64 65 65 65 66 66 66 67 67 67 67 67 67 68 68 67 67 67 67 67 67 66 67 68 68 68 68 69 69 69 69 69 69 70 69 69 69 70 69 67 65 64 63 62 62 61 60 59 58 57 56 55 54 53 55 58 60 59 57 55 55 55 56 56 53 53 57 58 59 59 56 54 54 54 55 56 56 56 56 55 55 56 58 59
63 63 64 64 65 65 66 66 66 66 66 66 66 66 67 66 66 66 66 66 66 66 66 65 65 65 66 66 67 68 68 67 67 67 67 67 68 68 67 66 65 65 64 62 60 60 59 59 60 59 58 58 57 55 54 53 53 54 54 56 58 59 58 56 56 56 54 51 53 58 60 60 60 60 59 59 58 57 57 57 56 55 54 54 57 58 59
62 62 62 63 63 64 64 64 64 64 64 64 64 64 64 64 64 63 63 64 64 64 63 62 62 62 61 62 63 64 64 63 63 63 63 63 63 64 64 63 60 59 59 58 57 57 57 57 58 57 56 56 55 53 53 52 52 53 53 53 57 60 59 58 58 57 54 52 55 60 61 59 59 61 62 62 61 59 58 56 54 53 52 53 56 57 56
60 60 60 61 61 62 62 62 61 61 61 61 62 62 61 61 61 61 61 61 62 62 61 60 59 59 59 59 60 60 60 60 60 60 60 60 60 61 62 61 59 57 56 56 55 55 54 54 55 54 54 54 53 52 51 51 50 51 52 55 58 59 58 59 59 57 56 56 58 60 59 58 61 64 63 62 61 59 57 55 53 52 52 53 54 54 53
58 58 58 59 59 59 59 59 59 58 58 58 59 59 58 58 58 59 59 59 60 60 60 58 57 57 57 57 58 58 58 58 58 59 59 59 59 59 59 59 58 58 57 57 56 55 54 53 53 52 51 51 51 50 50 50 49 49 52 57 60 59 58 59 58 55 55 58 60 61 59 58 61 65 63 60 59 58 56 55 54 52 51 51 51 50 49
56 56 56 56 56 56 56 56 55 55 54 55 55 56 55 54 55 55 56 56 57 58 59 57 55 55 56 56 56 57 56 56 56 56 56 56 56 56 56 56 57 57 57 58 57 57 56 55 54 53 52 51 50 49 49 49 49 50 54 59 61 58 56 55 55 54 54 56 59 60 59 57 58 62 61 59 57 55 52 51 51 50 49 49 48 48 48
52 52 52 52 52 53 52 52 51 51 51 51 51 52 52 51 52 52 53 53 54 56 57 57 55 54 54 55 55 55 55 54 53 53 53 53 53 54 55 56 56 56 57 57 57 56 56 56 55 55 54 53 52 50 51 51 50 52 58 61 60 56 54 53 53 53 53 54 56 56 55 54 56 58 57 55 54 51 49 48 48 47 46 46 47 46 46
48 48 49 49 49 49 48 48 47 47 47 47 48 49 49 49 49 50 50 50 51 53 54 55 54 54 54 54 53 53 52 51 50 50 51 52 52 53 53 55 55 56 56 56 55 55 56 55 55 56 55 55 53 52 52 52 51 55 61 61 57 55 55 54 52 51 51 52 53 52 51 53 54 53 52 51 50 48 47 47 47 45 44 44 45 44 43
45 46 46 46 46 46 45 45 44 45 45 45 45 46 46 47 47 48 48 48 48 49 51 53 53 53 52 52 51 49 48 48 48 49 51 51 52 52 53 53 53 54 54 53 53 54 55 55 55 56 56 56 55 54 54 53 52 56 60 60 56 54 55 53 51 50 50 50 50 49 50 51 50 48 48 49 47 46 46 46 46 44 42 42 42 41 40
44 44 44 44 44 44 44 43 43 43 44 44 44 44 44 45 45 46 46 46 47 47 48 49 50 49 49 48 48 47 47 47 47 49 50 50 51 52 52 52 53 53 53 53 53 53 54 54 54 56 57 57 56 56 56 55 54 54 57 57 55 53 52 52 51 51 49 47 45 46 48 48 46 45 46 46 45 43 43 44 43 41 40 40 40 39 38
42 43 43 43 43 43 43 42 42 42 43 43 43 43 43 42 43 43 43 43 44 44 44 45 45 46 47 46 46 47 47 47 47 49 49 49 50 51 51 52 53 54 54 54 54 54 55 55 56 57 58 56 56 56 56 55 53 52 52 53 53 51 50 50 50 49 47 44 43 44 46 45 44 43 43 43 42 41 40 40 39 38 38 38 37 36 35
40 40 41 41 41 42 42 41 40 40 40 39 39 40 40 40 39 40 40 39 40 40 41 42 43 44 45 45 45 46 47 48 48 49 49 48 49 50 50 52 53 53 53 54 54 55 55 55 56 57 57 56 55 55 54 53 52 51 51 51 50 49 48 48 46 45 44 43 42 42 43 43 42 41 40 39 39 38 37 37 36 36 36 35 35 34 33
36 36 37 38 38 38 38 37 36 36 36 36 35 36 36 36 36 37 37 37 37 38 39 40 40 41 43 43 43 44 46 47 48 48 48 48 49 49 50 51 52 53 53 54 54 55 55 55 55 56 55 55 54 53 52 51 50 49 49 48 47 46 46 45 43 42 41 41 40 40 40 40 39 39 37 36 36 35 35 34 34 33 33 33 33 33 31
31 32 32 33 33 33 33 33 33 33 33 32 32 33 34 35 35 36 36 36 36 36 37 38 38 39 40 41 42 43 44 46 47 47 47 48 49 49 50 51 52 53 54 53 54 54 55 54 54 54 53 52 52 50 49 48 47 47 46 44 43 42 42 42 41 40 39 39 39 39 38 37 36 35 34 34 34 34 33 32 31 31 31 32 32 32 30
28 28 29 29 30 31 31 30 31 31 31 31 31 31 32 34 35 35 35 35 35 35 36 37 37 38 39 40 40 42 43 45 46 47 47 47 49 50 50 51 52 54 54 53 53 53 53 52 52 52 51 50 49 47 46 46 45 44 43 42 40 39 39 38 38 37 37 36 36 36 35 34 33 32 32 32 32 32 31 30 29 29 30 31 31 29 28
27 27 27 28 28 29 29 29 30 31 31 31 31 31 31 32 33 34 34 34 34 34 35 36 36 37 39 40 40 40 42 44 45 47 47 47 49 50 51 51 52 52 53 52 51 51 51 50 49 49 49 47 45 44 44 43 41 41 40 39 37 36 36 35 35 35 34 34 33 33 33 32 31 30 30 30 30 29 29 28 28 29 29 30 28 27 25
27 26 27 27 28 29 29 29 30 31 31 31 31 31 31 32 32 33 34 34 33 34 35 35 35 36 38 39 40 40 41 43 44 46 46 47 48 49 50 50 50 51 51 51 50 49 49 48 47 46 45 43 41 41 40 39 38 38 37 36 34 33 33 33 33 32 32 31 30 31 31 30 29 28 28 27 27 27 27 26 27 27 28 27 26 24 23
26 26 26 27 27 28 28 28 29 30 30 31 31 31 31 32 32 33 34 34 34 35 37 37 36 37 38 39 40 41 42 43 44 45 46 46 47 48 48 48 49 50 50 49 48 47 46 45 43 42 41 40 39 38 37 36 36 35 34 33 32 31 31 31 31 30 29 29 28 28 28 28 27 27 26 26 25 25 25 25 26 26 26 24 23 22 22
28 26 26 26 27 27 27 27 28 28 28 29 30 30 30 31 32 33 34 34 33 35 38 39 39 39 40 41 42 43 44 44 44 45 46 46 46 47 48 48 48 49 48 47 46 45 43 42 40 39 38 37 37 37 36 35 34 33 31 30 29 29 29 29 29 28 27 26 26 26 26 26 26 25 24 24 23 23 24 24 25 24 22 21 21 21 22
30 29 28 27 26 26 26 26 27 27 28 28 29 29 30 31 31 32 33 33 33 34 37 38 39 40 40 41 42 43 44 45 45 45 45 46 45 46 47 46 46 47 46 45 44 42 40 39 37 36 35 35 35 35 34 33 31 30 29 27 27 27 27 27 26 25 25 25 24 24 24 24 24 23 23 22 22 22 22 23 22 21 20 20 21 22 22
28 29 29 28 27 26 25 25 26 26 27 28 28 28 28 29 30 31 32 32 32 34 36 38 39 40 40 42 43 44 44 45 45 44 44 44 44 45 45 45 44 44 43 42 41 39 37 36 34 33 33 33 33 33 32 29 28 27 26 25 25 25 25 24 24 24 23 23 22 22 22 22 22 21 21 21 20 20 20 21 20 20 21 22 23 23 22
28 28 27 27 26 26 25 25 25 25 26 28 29 29 30 29 30 32 33 33 33 35 37 38 40 41 42 43 44 44 44 44 43 43 43 43 43 44 44 43 42 42 41 39 38 37 35 34 32 32 32 32 32 31 28 26 25 25 25 24 24 24 23 23 23 23 22 21 20 20 20 20 20 20 19 19 19 19 19 20 21 21 22 24 24 23 23
28 28 26 25 24 24 24 24 25 26 27 28 30 31 33 33 33 34 35 35 35 37 38 40 41 42 43 43 43 43 43 43 42 42 43 43 42 42 43 42 41 40 39 37 35 34 33 32 31 31 31 31 30 28 25 23 23 23 23 23 23 23 22 22 22 21 20 19 19 18 18 18 18 19 19 18 18 18 19 21 21 22 23 24 24 24 25
29 28 26 24 23 22 22 23 24 26 28 29 30 31 33 34 35 36 37 37 37 38 39 40 41 42 42 43 43 42 42 41 41 41 42 42 41 41 41 40 39 38 37 35 34 33 31 30 30 30 30 29 28 25 23 22 21 21 22 22 23 22 21 21 20 19 18 18 18 17 17 17 17 18 18 18 18 19 20 21 22 23 24 25 25 25 26
27 27 26 25 24 24 24 25 26 27 28 29 30 31 33 34 35 36 37 38 39 40 41 42 43 43 43 43 43 42 41 41 40 40 40 41 40 40 39 38 37 37 35 33 32 32 30 28 28 29 29 27 25 23 21 20 20 20 21 22 22 22 21 20 19 18 17 17 17 17 16 16 17 18 18 18 18 19 20 21 22 23 24 24 24 25 26
26 25 25 26 25 26 27 28 28 29 29 30 31 33 33 34 35 36 37 38 39 40 41 42 43 43 43 43 42 41 40 40 40 40 39 39 39 39 38 36 36 35 34 32 31 30 28 26 26 27 27 25 23 21 20 20 20 20 20 21 22 21 20 19 17 17 17 17 17 16 16 16 17 18 18 19 19 20 21 22 23 24 24 25 25 25 26
26 26 26 27 27 27 28 29 30 31 31 31 32 33 34 34 35 36 37 38 39 40 40 41 42 43 43 42 42 40 39 39 40 40 39 38 38 38 36 35 34 34 33 31 30 29 27 25 25 25 25 24 21 20 19 20 19 19 19 20 21 20 19 17 17 16 16 16 16 16 16 16 17 18 18 19 19 21 22 23 24 25 25 26 26 25 26
26 26 26 27 28 28 28 30 32 33 33 33 34 35 35 35 35 36 37 38 39 40 40 41 42 42 42 42 42 41 39 39 39 39 38 38 37 36 35 34 33 33 31 30 29 28 26 24 24 24 24 23 21 19 19 19 19 18 19 19 20 19 18 17 16 16 15 15 15 15 16 16 17 17 18 19 20 21 22 23 24 25 26 26 26 26 27
28 27 26 27 29 30 30 30 32 34 35 35 35 36 36 36 36 37 38 39 40 40 40 41 42 43 42 41 41 41 40 39 39 39 38 38 37 36 34 33 32 31 30 29 28 27 25 24 23 22 22 22 20 19 18 18 18 18 18 19 19 19 18 17 17 16 16 15 15 15 16 16 17 17 18 19 20 21 22 23 25 25 26 27 27 27 27
29 30 29 28 28 30 31 31 33 35 37 37 37 37 37 37 38 39 40 41 41 41 41 41 42 43 42 41 41 41 40 39 39 38 38 37 36 35 34 33 32 31 29 28 27 26 24 23 22 21 21 21 20 18 18 18 18 18 18 18 19 19 19 18 18 17 16 16 16 16 16 17 17 18 18 19 20 21 23 24 25 26 27 27 28 28 28
Wind_Direction
264 263 262 261 260 260 260 260 260 261 261 261 261 262 263 265 266 267 267 267 268 270 270 270 271 271 272 272 272 273 272 272 272 272 271 272 271 270 269 269 271 272 274 275 276 276 276 276 277 276 276 275 272 268 265 265 266 269 270 270 269 267 264 261 261 261 263 266 270 272 273 273 272 272 271 270 269 267 265 263 262 263 265 265 264 260 258
265 264 263 262 262 261 261 261 261 261 261 261 261 262 263 264 266 267 267 267 268 269 270 271 271 271 271 272 273 273 272 271 272 272 271 271 272 273 273 272 271 271 272 272 274 276 275 275 276 276 277 277 277 275 272 269 267 267 267 268 268 269 268 266 265 265 265 267 269 271 273 275 275 276 276 275 273 271 270 267 264 264 265 265 265 262 259
268 266 265 264 264 263 263 262 262 262 262 262 262 263 263 264 265 266 268 269 269 270 271 271 271 271 271 271 271 271 271 271 272 272 272 271 273 274 275 274 274 273 273 274 276 277 275 274 275 276 277 278 279 278 275 273 271 270 269 269 269 269 270 270 269 268 268 269 270 270 272 274 276 277 277 277 276 275 273 272 270 268 267 267 267 265 263
272 270 268 267 266 265 265 265 264 264 264 263 264 264 265 266 266 267 269 270 270 270 270 270 270 271 271 272 272 270 271 272 272 272 272 271 270 271 272 273 275 275 274 275 275 275 275 274 274 276 277 278 278 277 275 274 274 274 274 274 274 273 273 273 272 271 270 268 269 270 271 273 275 276 277 277 277 276 275 274 274 273 271 270 270 269 265
278 275 273 272 270 269 268 267 267 267 267 267 266 266 266 267 267 268 268 269 269 268 267 267 267 268 269 272 273 273 273 274 273 273 273 271 268 267 268 270 273 275 275 275 274 274 275 275 275 275 276 276 277 277 277 277 276 277 277 277 277 277 276 275 274 273 272 270 270 270 271 272 273 274 276 276 276 275 275 276 277 276 274 272 272 270 266
284 282 279 277 275 273 271 270 269 269 269 268 268 267 266 266 266 267 267 266 265 265 266 266 267 268 269 271 273 275 276 276 277 278 278 277 274 273 272 271 272 275 277 276 276 277 278 278 278 276 275 276 277 278 279 279 279 279 278 277 276 276 275 275 274 274 275 274 273 272 272 271 272 273 274 274 273 274 275 276 277 276 275 273 270 269 269
288 286 284 282 280 278 276 273 271 270 269 268 267 267 266 265 263 263 264 265 264 265 266 267 268 269 271 272 272 273 274 275 276 277 279 280 280 280 279 277 276 277 279 279 279 280 280 280 279 278 277 277 277 278 279 280 280 279 278 277 276 275 274 274 275 275 275 275 275 274 273 272 272 272 272 272 272 273 274 273 272 271 271 272 271 271 273
286 286 285 285 284 282 280 277 274 271 270 269 268 266 265 264 263 262 263 266 268 269 270 270 271 273 274 274 273 273 273 273 275 276 278 280 282 282 281 280 279 278 278 279 280 280 279 278 278 278 278 278 279 279 280 281 280 279 278 278 278 277 276 275 275 274 274 274 275 275 274 274 273 272 272 272 272 272 272 271 270 270 271 272 273 274 274
284 284 283 282 282 281 280 278 276 273 271 270 269 268 266 266 266 267 267 269 270 272 273 274 275 276 277 278 277 276 275 275 277 279 280 280 281 281 281 280 280 280 279 279 279 279 278 277 277 277 279 280 280 280 280 280 281 281 281 280 278 278 277 276 275 274 273 273 273 273 274 274 274 274 273 272 270 269 269 269 270 272 273 273 273 273 272
284 283 282 281 281 280 279 278 276 274 273 271 269 269 269 269 270 271 272 272 273 274 274 275 276 277 278 278 278 277 278 279 279 280 280 280 279 279 280 281 282 282 282 281 281 281 280 278 278 278 279 280 280 280 280 280 280 281 281 281 281 280 279 278 277 275 273 272 271 270 270 272 274 274 272 270 268 268 268 269 270 271 272 272 272 272 272
285 284 284 283 282 281 280 280 278 277 276 274 273 272 271 272 272 272 273 274 274 274 275 276 277 277 277 277 277 277 278 280 280 280 279 279 279 279 280 282 283 283 283 283 283 281 281 281 281 281 280 279 279 279 280 280 280 280 280 281 281 282 281 279 277 276 275 273 272 269 268 270 270 268 267 267 268 269 270 270 270 269 270 270 270 271 272
285 285 285 285 285 284 284 283 282 281 280 279 278 277 276 275 275 275 275 275 276 276 277 278 279 279 278 278 278 279 279 279 279 280 280 280 281 282 282 282 282 282 282 282 282 281 281 283 284 283 282 281 281 280 279 280 281 281 281 280 280 280 280 280 279 277 276 275 273 271 269 268 265 263 264 266 267 267 267 267 267 268 269 270 270 271 271
284 284 285 285 285 285 285 285 284 284 283 282 282 281 280 279 279 278 277 277 277 277 278 279 279 278 278 278 279 280 280 280 280 280 281 281 282 282 283 283 283 282 281 281 281 282 283 283 283 283 284 283 283 282 282 282 282 282 282 281 280 278 278 279 279 278 277 276 274 273 271 268 265 263 262 262 262 263 263 264 265 267 268 269 270 271 271
283 283 284 284 284 284 284 284 284 284 284 284 283 283 282 282 282 281 280 279 279 279 279 279 279 279 278 279 279 279 280 281 281 281 282 282 282 282 283 283 283 283 282 282 283 284 284 283 283 284 284 284 284 284 284 283 283 283 282 281 280 279 278 277 277 277 277 276 274 274 273 269 266 264 262 260 260 261 262 263 264 265 265 266 267 268 269
282 282 282 282 282 283 283 283 283 283 283 283 283 283 283 283 283 282 282 281 280 280 280 280 280 280 280 279 279 280 281 282 282 282 282 282 282 282 282 282 282 282 283 284 285 285 284 284 285 285 285 286 286 286 286 286 285 284 282 281 281 279 278 277 276 276 276 275 275 275 273 270 266 265 264 263 262 261 261 261 261 262 263 264 266 267 268
282 282 281 281 281 282 282 282 282 282 283 283 283 283 283 283 282 282 282 282 281 281 280 280 279 279 279 279 280 281 281 281 281 282 282 282 282 282 281 281 282 282 284 284 285 285 285 286 287 287 287 287 287 288 288 288 287 285 283 281 280 279 278 278 277 277 276 276 275 275 273 271 268 266 264 264 263 263 262 261 261 262 263 264 265 266 267
282 281 281 281 281 281 281 281 282 282 282 282 282 282 282 282 282 282 282 282 281 281 280 279 278 277 278 279 280 280 281 281 281 282 282 283 283 283 282 282 283 283 284 284 284 285 287 288 289 289 290 290 290 290 290 288 286 284 283 281 280 280 280 279 278 277 277 276 275 274 273 272 270 267 265 263 263 264 264 263 263 264 264 264 265 266 267
281 281 281 280 280 280 281 281 281 281 281 281 281 282 282 282 282 282 282 282 281 281 281 279 278 277 277 278 279 280 280 280 281 282 282 283 283 284 284 285 285 285 285 285 286 286 287 288 289 290 291 291 291 291 290 287 285 284 283 282 282 281 280 279 278 278 278 278 277 276 275 272 270 268 267 266 266 265 265 265 265 264 264 264 265 266 266
281 280 280 280 280 280 280 280 280 280 281 281 281 281 281 282 282 282 282 281 281 281 280 280 279 278 279 279 280 280 280 280 281 282 282 283 283 283 284 285 286 287 288 288 288 288 288 289 290 290 291 291 290 290 288 287 286 283 282 282 282 281 281 280 278 278 278 278 278 278 276 274 270 268 266 266 266 267 268 269 269 268 267 267 267 267 266
280 280 280 280 280 280 280 280 280 280 280 281 281 281 281 281 281 281 281 281 280 280 280 279 279 279 280 280 280 280 281 282 282 283 283 284 283 283 284 285 286 287 288 289 290 290 291 291 291 290 290 289 289 288 287 286 285 283 282 281 280 281 282 281 280 278 277 276 277 276 275 274 272 270 268 268 268 268 269 269 269 268 267 267 267 267 266
279 279 279 279 279 279 279 280 280 280 280 281 281 281 281 281 281 281 281 280 280 280 280 280 279 280 280 280 280 281 282 283 284 284 284 284 284 284 285 286 286 287 288 288 289 290 291 291 290 290 289 288 287 286 285 284 284 283 282 280 280 280 281 280 280 280 278 276 276 276 275 274 274 273 272 272 272 272 271 269 268 268 266 265 264 264 264
279 279 279 279 279 279 279 279 280 280 280 280 281 281 281 281 281 281 281 281 280 280 280 280 281 281 281 280 281 282 283 283 284 284 285 285 285 285 286 286 287 287 287 288 289 290 290 290 290 289 289 287 286 285 284 284 284 284 283 282 281 280 279 279 279 279 279 279 279 279 277 277 276 275 275 275 275 274 274 272 271 271 270 268 267 265 264
279 279 280 280 280 280 280 280 280 280 281 281 281 281 281 281 281 281 281 281 281 280 280 280 281 281 281 281 282 283 283 283 284 285 285 285 286 286 286 286 286 287 288 288 289 289 289 289 288 288 288 287 286 285 284 284 283 282 283 284 284 282 280 278 277 277 278 280 281 280 280 280 281 280 279 278 276 275 274 273 271 270 269 269 268 267 266
280 280 280 280 280 280 281 281 281 281 281 282 282 282 282 282 282 282 282 282 282 281 281 281 281 281 281 282 283 283 283 284 285 285 286 286 286 286 286 286 287 288 288 289 289 288 288 288 287 287 286 286 285 285 285 284 283 281 281 282 283 282 281 279 278 278 279 281 281 280 280 281 282 283 283 281 279 276 274 272 271 270 269 269 269 268 268
281 281 281 281 281 281 281 281 281 281 282 282 282 282 282 283 283 283 283 282 282 282 282 282 283 283 283 283 283 283 284 285 286 286 287 287 287 287 287 287 287 287 287 287 287 286 286 286 285 285 285 285 285 285 284 284 283 282 282 281 279 279 279 280 280 281 283 284 282 280 281 283 284 283 281 280 279 277 275 274 274 273 272 271 270 269 268
281 281 281 281 281 281 282 282 282 282 282 282 282 282 282 282 283 283 283 283 283 283 283 283 283 284 284 284 284 284 286 286 287 287 288 288 288 288 289 289 289 289 288 287 286 286 285 285 284 285 284 284 284 284 284 283 282 282 281 280 277 277 279 280 282 284 286 285 283 282 283 284 282 280 278 277 277 277 277 277 277 275 273 272 270 269 269
282 282 281 281 281 281 282 282 282 282 282 282 282 282 282 282 282 282 282 282 282 283 283 283 283 283 284 284 284 285 286 286 287 288 288 289 289 289 289 289 290 290 290 290 290 289 289 288 287 286 285 285 285 284 284 283 282 282 281 279 278 278 279 280 282 284 284 284 283 282 280 278 277 277 277 278 277 277 278 278 277 276 274 272 271 271 270
282 282 282 281 281 282 282 282 282 282 282 282 282 282 282 282 282 282 282 282 282 283 283 284 284 284 284 284 285 286 286 287 287 288 288 288 288 288 288 288 289 290 290 291 292 292 292 291 291 290 289 288 287 287 286 285 284 284 282 279 279 280 281 282 283 283 281 280 279 278 277 277 277 277 278 278 277 277 277 277 276 275 275 274 273 272 270
282 282 282 282 282 282 282 283 283 283 283 282 282 283 283 283 282 282 282 282 282 283 283 284 285 285 284 285 286 286 287 288 288 288 288 287 287 288 288 289 289 290 291 291 292 292 293 293 292 292 292 291 290 289 288 287 287 287 284 281 282 284 285 284 283 282 280 279 277 277 279 279 278 277 277 278 278 278 277 276 274 273 272 272 271 270 270
282 282 282 282 282 283 283 283 284 284 283 283 283 283 283 283 283 282 282 282 282 283 283 284 285 286 286 286 286 287 287 288 288 288 288 287 287 288 288 289 289 290 290 291 292 292 292 292 292 291 291 290 291 290 289 289 289 288 285 284 286 288 287 286 284 283 282 281 280 280 281 279 277 276 277 277 277 278 277 276 274 273 271 270 269 268 268
283 283 283 283 284 284 284 285 285 285 284 284 284 284 283 283 283 283 283 282 282 282 283 284 285 286 286 287 287 287 288 288 288 287 287 288 288 289 289 289 289 290 290 290 291 291 291 291 292 291 291 291 291 291 291 290 289 287 286 287 289 289 287 287 287 285 283 281 281 281 279 277 276 277 277 277 276 276 275 274 273 272 271 269 267 266 265
284 284 284 285 285 286 286 286 286 285 285 285 284 284 284 283 283 283 284 284 284 284 283 284 285 286 286 287 288 289 289 289 289 288 288 290 291 291 292 292 292 292 292 292 292 291 291 292 292 291 291 292 292 292 292 291 289 287 287 289 289 288 288 288 286 284 282 281 280 279 278 277 277 277 277 277 276 274 273 272 271 271 270 268 266 264 262
285 284 285 286 286 286 286 286 286 286 285 285 286 286 285 285 285 284 284 284 284 285 285 285 286 287 287 288 289 290 290 290 290 290 291 292 293 293 294 294 294 294 294 294 294 293 293 293 292 291 291 292 293 292 292 291 290 290 289 289 288 288 287 285 284 283 283 282 280 279 278 279 278 277 276 276 275 274 272 271 271 269 267 265 264 262 260
284 285 285 286 286 286 287 287 288 287 287 287 288 287 287 287 287 286 286 286 285 285 286 286 287 288 289 291 292 292 291 292 292 292 293 294 293 294 294 293 293 293 293 293 293 293 293 293 293 292 293 294 293 292 292 291 292 291 289 288 287 286 285 284 283 283 283 283 282 280 279 278 277 275 274 273 273 272 271 269 268 266 264 263 261 258 256
286 287 288 288 288 288 289 290 290 290 290 290 290 290 290 290 289 288 288 287 287 287 287 288 288 289 290 291 292 291 291 292 293 293 294 294 294 293 293 293 293 294 294 294 294 294 294 294 294 293 294 294 293 292 292 291 291 289 288 286 286 286 285 285 285 285 285 284 282 280 277 275 274 274 274 273 271 269 267 265 263 262 260 259 256 253 251
291 291 291 292 292 293 293 294 294 293 293 293 293 293 293 292 291 290 290 289 289 290 290 290 290 290 291 291 292 292 292 293 293 293 294 294 294 294 295 295 295 295 295 295 295 295 295 295 295 294 294 293 293 292 292 291 290 289 288 287 287 286 286 286 286 286 284 282 280 277 276 276 276 275 274 272 269 267 265 263 261 258 256 254 252 251 248
296 296 296 296 297 297 297 297 297 296 296 296 296 295 295 294 293 293 293 293 293 293 293 292 292 292 292 292 292 293 293 294 294 295 295 296 296 296 297 297 296 296 296 296 296 296 295 295 295 295 294 294 294 294 293 291 290 289 289 288 287 286 286 286 286 284 282 280 279 278 278 278 277 274 272 270 267 265 263 261 258 255 253 251 251 250 248
300 300 300 301 300 300 300 301 300 299 299 299 298 297 296 294 294 294 294 294 295 295 293 293 294 294 293 293 294 294 294 294 294 295 296 297 297 297 298 297 297 296 296 297 297 297 297 297 296 295 294 294 294 294 292 291 290 289 287 287 287 287 287 286 284 282 280 279 279 278 277 275 274 272 270 268 266 263 261 258 256 253 252 251 250 249 246
304 305 304 304 303 303 303 303 301 301 301 300 300 300 299 298 297 297 296 297 298 297 295 294 295 294 294 294 295 295 295 295 296 297 297 298 298 298 298 298 298 298 298 299 299 299 298 297 296 295 295 295 295 293 291 290 289 287 287 288 289 289 287 284 281 280 279 279 278 277 275 274 272 270 269 267 264 262 259 256 253 252 251 250 248 246 242
306 306 306 305 304 304 304 304 303 303 303 302 301 301 301 300 300 299 299 300 302 301 299 299 299 298 297 298 298 299 299 299 299 300 300 301 301 301 300 300 300 300 300 300 300 299 298 298 297 297 297 297 295 293 291 289 288 288 289 290 289 286 283 280 279 279 279 279 278 276 274 273 271 269 267 264 261 259 256 253 251 250 249 248 246 242 237
308 307 307 306 306 305 305 304 303 303 303 302 302 302 301 301 301 301 301 303 304 303 302 302 303 303 303 303 303 302 302 303 303 304 304 305 304 303 302 302 301 301 301 301 301 300 299 300 300 300 299 297 295 293 291 290 290 291 291 289 286 283 280 279 279 279 278 277 275 274 273 272 270 267 265 262 259 256 253 251 250 250 249 247 242 237 233
309 309 309 308 307 306 307 306 306 306 305 305 304 304 303 302 302 301 301 302 303 302 301 302 302 303 303 304 304 305 306 307 307 308 307 306 305 304 303 303 303 302 302 302 302 301 301 302 301 300 298 296 294 292 291 292 293 293 291 288 284 281 280 279 278 276 274 273 272 271 271 270 268 266 263 260 257 254 252 251 250 249 246 240 236 232 228
308 309 309 310 309 309 309 309 309 308 307 305 304 302 300 299 299 299 299 301 302 302 302 303 304 306 307 308 308 309 309 309 309 309 308 306 305 305 305 305 304 304 304 303 302 303 303 303 302 300 298 295 292 291 292 295 294 292 289 286 282 280 278 277 275 272 271 270 269 269 268 266 265 263 261 258 255 252 250 249 247 243 239 236 233 229 223
310 309 309 309 310 310 311 311 310 309 308 307 307 305 304 303 304 304 304 306 308 307 308 309 310 311 312 311 311 311 310 310 310 310 309 308 308 307 307 307 306 305 304 304 304 304 305 304 303 301 298 295 293 293 296 297 294 290 286 283 279 277 275 274 272 271 270 269 267 265 264 263 262 260 258 255 252 248 246 244 242 239 237 235 233 227 220
312 311 310 309 308 310 311 312 312 311 311 310 311 310 310 310 311 310 310 312 313 313 313 313 313 312 312 311 311 311 311 312 313 312 310 309 310 309 308 308 308 306 305 306 306 307 307 306 304 301 297 295 295 297 299 297 292 287 284 281 278 276 273 272 271 270 269 267 264 262 261 260 259 257 255 252 248 243 241 240 239 237 235 235 232 226 219
313 312 310 309 308 309 310 311 311 311 311 311 311 311 311 312 313 313 313 314 315 314 313 313 313 313 314 313 313 314 314 314 314 313 311 311 311 310 309 309 309 307 307 308 309 309 308 307 304 301 298 297 299 300 298 294 288 284 281 278 276 274 272 271 271 270 268 266 263 260 257 256 255 253 251 248 244 240 238 238 238 236 235 235 232 227 222
313 311 309 309 310 310 311 311 311 311 310 310 310 310 311 312 313 313 314 315 316 316 316 316 316 316 317 316 315 316 316 316 315 314 313 313 313 312 311 311 310 309 309 311 311 310 308 307 305 302 300 300 301 300 297 291 285 281 278 276 274 273 273 272 271 269 267 264 262 259 255 252 250 249 247 244 241 238 236 236 236 236 236 235 233 229 226
311 310 309 309 311 312 313 313 312 312 311 311 311 311 312 313 313 314 315 315 315 316 317 318 318 318 317 317 316 317 318 317 316 315 315 314 314 313 313 312 311 311 312 313 312 310 308 308 307 304 301 301 301 299 294 288 283 279 276 275 275 274 274 273 270 267 264 262 260 257 253 249 246 245 244 241 238 235 233 233 233 233 234 234 233 230 228
310 310 310 310 311 312 313 313 312 312 311 312 312 312 312 314 314 314 315 316 317 318 319 319 319 318 318 318 318 319 319 318 317 317 316 316 315 314 314 314 313 313 313 314 312 310 309 310 308 305 302 301 300 296 291 287 283 280 278 277 276 276 274 272 268 265 261 258 256 254 251 247 244 242 241 239 237 235 234 233 232 232 232 232 231 229 227
308 308 309 309 309 311 313 313 313 312 312 312 312 312 313 314 315 316 317 318 319 319 321 321 320 319 320 320 320 319 320 320 319 318 318 318 317 316 316 316 315 315 315 314 313 311 311 310 309 306 303 300 298 295 291 287 284 281 279 277 276 275 274 270 266 263 259 255 252 250 248 246 244 241 239 238 236 235 235 235 235 234 234 233 232 230 226
306 307 308 308 309 311 313 313 312 311 311 311 312 313 314 316 317 318 319 320 321 321 323 323 322 321 321 322 322 321 321 322 321 321 320 320 319 318 319 319 317 316 316 315 314 312 312 312 311 308 304 300 298 296 292 288 285 281 278 276 274 273 271 268 265 261 257 253 249 246 244 244 243 241 240 238 237 236 236 236 236 236 236 235 235 233 230
305 306 307 308 308 310 312 312 312 311 311 312 313 315 317 319 320 321 321 322 323 323 324 324 323 322 323 324 323 321 321 323 323 322 321 321 321 321 322 320 318 317 317 316 314 314 314 314 313 310 305 300 298 296 293 290 286 282 278 274 272 271 269 267 265 262 258 254 250 246 243 241 241 240 239 238 237 237 237 237 237 237 237 237 236 236 234
Height
10470 10470 10470 10470 10471 10471 10472 10473 10473 10473 10474 10474 10474 10474 10474 10473 10473 10472 10471 10472 10473 10473 10473 10473 10472 10472 10471 10469 10469 10470 10470 10468 10469 10469 10468 10468 10468 10468 10468 10468 10467 10466 10465 10464 10464 10465 10467 10465 10462 10460 10459 10459 10459 10462 10463 10464 10462 10460 10459 10460 10459 10459 10461 10462 10462 10461 10458 10455 10450 10445 10441 10440 10443 10447 10449 10450 10447 10444 10443 10445 10447 10444 10444 10447 10448 10461 10472
10466 10466 10466 10466 10466 10467 10467 10468 10468 10468 10468 10468 10468 10469 10468 10468 10468 10466 10465 10467 10468 10468 10467 10467 10466 10466 10465 10464 10464 10464 10464 10463 10463 10463 10463 10462 10462 10461 10461 10462 10462 10461 10460 10459 10459 10460 10461 10460 10456 10454 10454 10452 10450 10451 10453 10454 10454 10453 10452 10452 10452 10450 10451 10453 10453 10452 10452 10448 10444 10440 10435 10432 10436 10438 10439 10438 10434 10431 10430 10431 10434 10436 10437 10437 10438 10450 10460
10462 10462 10462 10462 10462 10462 10463 10463 10463 10463 10463 10463 10463 10463 10463 10463 10463 10460 10459 10461 10462 10462 10462 10461 10460 10460 10460 10460 10460 10459 10458 10458 10458 10457 10457 10458 10457 10455 10455 10455 10455 10455 10454 10454 10454 10453 10453 10454 10451 10449 10448 10447 10443 10441 10442 10443 10444 10443 10444 10445 10444 10443 10443 10444 10443 10444 10444 10440 10436 10434 10430 10427 10429 10430 10430 10427 10422 10419 10418 10418 10421 10426 10427 10427 10430 10439 10445
10459 10458 10458 10458 10458 10458 10459 10459 10459 10458 10458 10459 10459 10459 10459 10458 10457 10455 10455 10456 10456 10457 10457 10455 10455 10454 10454 10454 10455 10454 10454 10453 10452 10451 10450 10452 10453 10450 10449 10449 10449 10449 10448 10448 10448 10447 10445 10446 10446 10445 10443 10440 10435 10430 10430 10434 10435 10435 10436 10436 10434 10435 10435 10434 10433 10434 10433 10430 10427 10426 10424 10423 10423 10423 10422 10418 10411 10407 10405 10406 10411 10414 10414 10418 10422 10425 10430
10455 10455 10454 10454 10454 10454 10455 10455 10454 10454 10454 10454 10454 10454 10454 10454 10452 10450 10450 10451 10450 10450 10451 10450 10450 10449 10449 10450 10449 10448 10448 10447 10446 10444 10444 10445 10446 10445 10445 10446 10444 10442 10441 10441 10440 10440 10439 10438 10439 10438 10436 10433 10428 10422 10421 10424 10427 10428 10428 10427 10425 10424 10424 10423 10422 10422 10420 10419 10420 10419 10418 10418 10417 10415 10415 10410 10401 10396 10395 10396 10401 10401 10399 10408 10414 10408 10412
10452 10451 10451 10451 10450 10450 10451 10450 10450 10449 10449 10449 10449 10449 10449 10449 10447 10445 10445 10445 10445 10445 10445 10445 10445 10444 10445 10446 10445 10443 10442 10441 10439 10438 10436 10435 10436 10438 10439 10440 10438 10435 10432 10432 10433 10434 10433 10431 10429 10428 10427 10425 10422 10417 10413 10414 10418 10419 10417 10417 10416 10415 10414 10412 10411 10412 10409 10408 10409 10410 10409 10410 10410 10409 10407 10401 10392 10389 10389 10390 10390 10386 10384 10394 10400 10395 10397
10449 10448 10447 10447 10447 10446 10446 10446 10446 10445 10444 10444 10444 10444 10443 10443 10443 10441 10440 10439 10440 10440 10440 10439 10439 10439 10440 10441 10439 10438 10437 10436 10434 10432 10430 10428 10427 10429 10431 10431 10430 10428 10425 10424 10425 10426 10425 10422 10419 10419 10419 10417 10415 10412 10407 10405 10408 10408 10406 10406 10405 10405 10405 10402 10401 10403 10400 10397 10398 10399 10398 10400 10403 10402 10397 10391 10386 10383 10381 10381 10379 10374 10372 10378 10384 10387 10389
10445 10444 10444 10443 10443 10442 10442 10442 10441 10441 10440 10439 10439 10439 10439 10438 10438 10437 10435 10434 10434 10434 10434 10434 10433 10433 10434 10434 10432 10431 10431 10430 10429 10426 10425 10423 10420 10418 10420 10421 10421 10421 10420 10418 10417 10418 10417 10414 10411 10410 10410 10409 10407 10405 10401 10397 10395 10396 10396 10396 10393 10392 10393 10392 10391 10393 10391 10388 10387 10386 10385 10387 10393 10394 10387 10381 10379 10376 10371 10368 10366 10364 10365 10369 10372 10377 10381
10441 10441 10440 10439 10438 10438 10438 10437 10437 10436 10436 10435 10435 10434 10434 10433 10432 10431 10430 10429 10429 10428 10427 10427 10427 10427 10427 10426 10423 10423 10423 10423 10423 10420 10417 10417 10414 10410 10409 10411 10412 10412 10411 10411 10410 10408 10407 10405 10403 10403 10403 10401 10398 10397 10395 10389 10385 10383 10383 10383 10383 10381 10381 10380 10379 10380 10382 10380 10378 10377 10373 10374 10381 10384 10378 10370 10366 10364 10361 10357 10355 10354 10357 10360 10361 10364 10369
10437 10436 10436 10435 10434 10433 10433 10432 10432 10431 10431 10430 10430 10429 10429 10428 10426 10425 10424 10422 10423 10422 10420 10421 10422 10421 10421 10418 10415 10414 10414 10415 10416 10414 10409 10407 10406 10403 10401 10402 10403 10402 10401 10401 10400 10398 10395 10393 10394 10395 10396 10394 10390 10387 10385 10381 10378 10375 10370 10368 10368 10367 10367 10367 10364 10366 10369 10368 10370 10370 10364 10366 10374 10373 10363 10356 10352 10350 10351 10350 10347 10347 10347 10348 10349 10350 10354
10432 10432 10431 10430 10429 10428 10428 10427 10426 10426 10425 10424 10424 10424 10423 10422 10421 10420 10418 10416 10415 10416 10414 10413 10415 10415 10413 10410 10406 10406 10407 10407 10407 10406 10402 10397 10395 10395 10395 10395 10394 10393 10391 10390 10390 10387 10383 10382 10383 10385 10385 10385 10383 10379 10375 10372 10368 10365 10361 10359 10357 10353 10350 10351 10350 10351 10353 10355 10356 10356 10356 10363 10367 10358 10347 10343 10341 10340 10340 10338 10336 10336 10337 10337 10338 10339 10341
10427 10426 10426 10425 10424 10423 10422 10422 10421 10420 10419 10418 10417 10417 10416 10416 10414 10414 10412 10409 10408 10408 10407 10407 10407 10406 10403 10401 10398 10398 10399 10399 10398 10396 10393 10390 10386 10385 10386 10386 10386 10385 10384 10382 10379 10377 10375 10374 10373 10372 10371 10372 10372 10369 10366 10363 10359 10353 10350 10349 10349 10345 10338 10335 10335 10336 10337 10341 10340 10340 10347 10355 10351 10343 10339 10336 10333 10330 10327 10324 10323 10325 10326 10326 10326 10328 10329
10421 10421 10420 10419 10418 10417 10416 10415 10415 10414 10412 10411 10410 10409 10409 10408 10407 10406 10405 10403 10401 10401 10401 10400 10399 10397 10394 10392 10390 10389 10389 10389 10388 10387 10385 10382 10379 10377 10376 10375 10375 10375 10374 10373 10371 10369 10368 10367 10364 10361 10358 10358 10358 10356 10354 10353 10349 10343 10337 10334 10334 10335 10330 10324 10323 10323 10323 10325 10325 10326 10335 10341 10335 10331 10332 10327 10320 10317 10314 10313 10315 10316 10316 10315 10315 10316 10317
10414 10414 10413 10413 10412 10411 10410 10409 10408 10407 10406 10404 10403 10402 10401 10401 10399 10398 10397 10395 10393 10394 10394 10392 10389 10387 10385 10384 10382 10380 10379 10379 10379 10378 10376 10373 10370 10369 10368 10366 10365 10363 10362 10362 10363 10361 10359 10356 10353 10351 10348 10344 10344 10344 10342 10340 10338 10332 10326 10321 10318 10320 10321 10317 10314 10313 10311 10310 10312 10314 10321 10327 10323 10318 10317 10313 10309 10307 10305 10305 10306 10306 10306 10305 10305 10305 10305
10407 10407 10406 10406 10404 10403 10403 10402 10401 10400 10399 10397 10395 10394 10394 10393 10392 10389 10388 10386 10384 10385 10387 10385 10380 10376 10374 10373 10373 10372 10371 10370 10369 10367 10365 10363 10362 10360 10359 10357 10355 10353 10352 10353 10353 10351 10347 10344 10342 10340 10337 10333 10331 10331 10329 10327 10325 10319 10314 10310 10306 10305 10308 10306 10303 10303 10301 10299 10301 10304 10308 10312 10312 10306 10303 10301 10298 10296 10296 10295 10295 10296 10297 10296 10295 10296 10296
10400 10399 10399 10398 10397 10396 10395 10394 10394 10392 10391 10390 10387 10386 10385 10385 10384 10381 10380 10377 10375 10375 10378 10377 10373 10368 10364 10362 10362 10363 10363 10361 10359 10357 10354 10353 10352 10350 10348 10347 10346 10345 10345 10344 10342 10340 10337 10334 10331 10328 10325 10321 10319 10320 10319 10316 10313 10307 10300 10298 10295 10293 10295 10296 10294 10293 10292 10290 10291 10293 10295 10298 10300 10297 10294 10289 10284 10283 10283 10283 10286 10289 10288 10287 10287 10288 10287
10392 10391 10391 10390 10388 10387 10386 10386 10385 10384 10383 10382 10380 10378 10376 10376 10375 10373 10371 10369 10366 10365 10368 10369 10364 10359 10356 10354 10352 10353 10353 10350 10349 10348 10345 10342 10341 10338 10335 10336 10336 10335 10336 10335 10333 10331 10328 10324 10320 10316 10312 10309 10307 10308 10308 10305 10302 10297 10289 10284 10284 10283 10284 10285 10283 10281 10281 10280 10280 10283 10285 10287 10287 10285 10281 10278 10275 10274 10272 10273 10278 10281 10279 10278 10279 10279 10278
10384 10383 10382 10381 10380 10379 10377 10377 10376 10375 10374 10373 10371 10370 10367 10366 10366 10364 10362 10360 10357 10355 10358 10358 10354 10350 10349 10347 10344 10343 10343 10341 10340 10340 10337 10333 10331 10326 10322 10323 10324 10323 10322 10323 10322 10321 10319 10315 10311 10307 10303 10298 10296 10296 10295 10292 10291 10288 10280 10274 10272 10272 10274 10274 10272 10271 10270 10269 10269 10272 10273 10274 10275 10273 10269 10267 10266 10264 10262 10265 10270 10272 10270 10269 10270 10270 10270
10375 10374 10373 10372 10371 10370 10368 10367 10366 10365 10364 10363 10361 10360 10358 10356 10355 10354 10353 10351 10347 10346 10348 10348 10343 10340 10340 10339 10336 10334 10332 10331 10331 10331 10328 10325 10323 10319 10314 10312 10312 10310 10308 10309 10309 10308 10307 10305 10301 10298 10294 10290 10286 10285 10283 10281 10278 10276 10273 10268 10263 10260 10262 10263 10263 10263 10262 10259 10258 10260 10260 10260 10262 10262 10258 10256 10256 10255 10255 10258 10259 10260 10261 10261 10260 10261 10260
10366 10364 10363 10362 10361 10360 10358 10357 10356 10355 10354 10352 10351 10350 10348 10346 10345 10344 10343 10341 10338 10336 10337 10337 10334 10332 10330 10329 10326 10323 10320 10320 10321 10320 10319 10316 10313 10310 10307 10304 10303 10302 10300 10298 10295 10293 10294 10293 10289 10287 10285 10282 10278 10275 10274 10272 10268 10264 10264 10261 10256 10253 10252 10251 10251 10254 10254 10252 10249 10249 10248 10247 10248 10250 10248 10248 10248 10248 10250 10251 10250 10250 10252 10252 10251 10250 10249
10356 10354 10353 10352 10351 10349 10348 10347 10345 10344 10343 10342 10341 10340 10338 10335 10334 10333 10332 10331 10328 10327 10326 10326 10324 10323 10322 10319 10316 10313 10311 10310 10309 10309 10308 10306 10302 10300 10297 10294 10292 10292 10291 10289 10286 10283 10282 10280 10277 10275 10274 10272 10269 10266 10264 10263 10259 10253 10252 10251 10250 10248 10245 10242 10241 10241 10242 10243 10242 10240 10238 10237 10238 10239 10239 10240 10240 10240 10240 10242 10241 10240 10241 10243 10243 10241 10239
10345 10344 10343 10342 10340 10339 10338 10336 10335 10334 10332 10331 10330 10329 10327 10325 10323 10322 10321 10320 10318 10317 10316 10315 10314 10313 10311 10308 10305 10305 10303 10300 10298 10297 10297 10295 10292 10290 10288 10284 10282 10281 10280 10279 10277 10274 10272 10269 10266 10264 10263 10261 10260 10257 10255 10255 10252 10245 10239 10238 10240 10241 10238 10236 10234 10231 10231 10234 10233 10229 10227 10227 10227 10230 10231 10231 10232 10230 10229 10230 10230 10230 10231 10232 10231 10230 10228
10335 10334 10333 10331 10329 10328 10327 10326 10325 10323 10321 10320 10319 10318 10316 10314 10312 10311 10310 10309 10308 10307 10305 10304 10304 10303 10299 10297 10296 10295 10292 10290 10288 10287 10285 10283 10281 10279 10278 10275 10272 10270 10269 10269 10268 10265 10262 10259 10256 10254 10253 10250 10249 10248 10246 10246 10244 10239 10232 10228 10227 10228 10228 10227 10227 10224 10224 10228 10226 10219 10217 10216 10216 10218 10220 10220 10221 10220 10219 10219 10219 10219 10220 10221 10220 10219 10217
10325 10324 10322 10321 10319 10317 10316 10315 10314 10313 10311 10310 10308 10306 10305 10303 10302 10301 10299 10297 10296 10295 10294 10294 10294 10292 10290 10288 10286 10283 10281 10280 10278 10277 10275 10273 10270 10267 10265 10264 10263 10261 10258 10258 10258 10255 10253 10250 10246 10245 10243 10240 10238 10239 10238 10236 10234 10231 10228 10224 10218 10214 10214 10217 10217 10216 10218 10222 10219 10211 10208 10209 10208 10207 10207 10206 10207 10208 10207 10207 10208 10209 10211 10211 10210 10209 10208
10315 10314 10312 10310 10308 10306 10306 10305 10304 10303 10301 10300 10298 10296 10295 10293 10292 10291 10290 10287 10285 10284 10284 10283 10283 10281 10281 10279 10276 10272 10271 10271 10269 10267 10265 10263 10260 10257 10254 10253 10253 10253 10251 10249 10248 10246 10244 10241 10237 10235 10234 10231 10230 10230 10229 10228 10225 10221 10219 10217 10210 10205 10205 10206 10206 10207 10210 10214 10210 10202 10200 10202 10201 10198 10195 10193 10193 10194 10194 10195 10198 10200 10201 10201 10199 10198 10199
10305 10304 10302 10301 10299 10297 10295 10295 10294 10293 10292 10290 10288 10287 10286 10285 10283 10281 10280 10278 10276 10274 10273 10274 10274 10272 10271 10270 10267 10264 10262 10261 10259 10257 10255 10253 10250 10247 10244 10241 10241 10241 10240 10239 10238 10236 10235 10232 10229 10227 10225 10223 10222 10221 10219 10218 10217 10214 10211 10206 10199 10198 10199 10198 10198 10200 10202 10201 10197 10193 10194 10196 10190 10184 10183 10184 10183 10183 10184 10185 10187 10188 10189 10189 10188 10187 10189
10295 10294 10293 10291 10289 10287 10286 10285 10284 10283 10283 10281 10279 10277 10277 10277 10275 10273 10271 10269 10266 10264 10263 10264 10265 10264 10262 10260 10258 10256 10255 10253 10251 10249 10246 10244 10241 10238 10236 10233 10231 10229 10227 10226 10225 10223 10222 10221 10218 10217 10216 10214 10213 10212 10211 10209 10208 10207 10203 10195 10188 10190 10193 10191 10191 10194 10194 10190 10185 10182 10184 10186 10180 10172 10172 10175 10174 10174 10176 10176 10176 10176 10177 10178 10178 10179 10179
10286 10285 10284 10282 10280 10279 10277 10276 10275 10275 10274 10272 10270 10268 10268 10268 10267 10265 10263 10261 10258 10255 10253 10254 10256 10255 10253 10251 10249 10247 10246 10245 10244 10242 10239 10236 10233 10230 10228 10226 10224 10221 10218 10216 10214 10212 10210 10209 10207 10205 10204 10204 10203 10203 10201 10199 10199 10197 10192 10183 10179 10182 10185 10184 10183 10185 10184 10181 10175 10171 10172 10175 10171 10165 10164 10165 10164 10165 10168 10168 10167 10167 10168 10168 10169 10169 10169
10277 10276 10275 10273 10272 10270 10269 10268 10267 10266 10265 10265 10263 10260 10260 10260 10258 10257 10255 10254 10251 10248 10244 10244 10245 10246 10244 10243 10241 10239 10237 10236 10235 10234 10231 10228 10225 10223 10220 10217 10215 10213 10211 10208 10206 10203 10200 10198 10196 10194 10192 10191 10192 10193 10191 10189 10189 10187 10178 10170 10170 10173 10175 10175 10174 10173 10171 10169 10165 10163 10164 10164 10161 10157 10156 10156 10156 10157 10159 10159 10159 10159 10160 10160 10160 10160 10160
10269 10268 10267 10265 10264 10262 10261 10261 10260 10259 10258 10257 10256 10253 10252 10252 10251 10249 10248 10247 10245 10242 10238 10235 10235 10236 10235 10233 10232 10231 10230 10229 10227 10225 10222 10219 10217 10215 10213 10210 10207 10205 10202 10200 10198 10195 10192 10190 10187 10185 10183 10181 10182 10183 10181 10179 10180 10175 10164 10159 10163 10165 10163 10162 10162 10161 10161 10158 10155 10155 10155 10153 10150 10149 10149 10148 10148 10149 10150 10149 10149 10150 10152 10152 10151 10151 10152
10262 10260 10259 10257 10256 10255 10254 10254 10253 10252 10250 10249 10249 10247 10245 10244 10243 10242 10241 10240 10238 10236 10233 10229 10227 10227 10226 10225 10224 10223 10222 10222 10220 10216 10213 10211 10209 10207 10205 10203 10200 10198 10195 10193 10191 10188 10184 10182 10180 10176 10173 10172 10172 10171 10170 10169 10170 10165 10155 10151 10155 10155 10152 10151 10151 10151 10150 10149 10147 10146 10145 10142 10141 10142 10141 10140 10141 10142 10141 10140 10140 10142 10143 10143 10143 10143 10143
10254 10253 10252 10250 10249 10248 10247 10247 10246 10245 10243 10242 10241 10240 10239 10237 10236 10235 10233 10232 10230 10229 10227 10224 10221 10220 10219 10217 10216 10215 10214 10213 10211 10207 10205 10203 10201 10198 10196 10194 10190 10188 10186 10184 10182 10180 10176 10174 10172 10167 10163 10163 10162 10160 10158 10157 10157 10155 10149 10145 10145 10145 10143 10142 10140 10139 10139 10140 10140 10138 10134 10132 10134 10135 10134 10132 10133 10134 10134 10132 10133 10134 10135 10135 10134 10135 10136
10247 10246 10244 10244 10242 10241 10240 10239 10239 10238 10236 10235 10234 10232 10231 10230 10229 10228 10227 10225 10224 10222 10220 10218 10215 10213 10211 10211 10210 10208 10206 10205 10203 10199 10197 10196 10193 10190 10188 10185 10181 10179 10176 10173 10172 10170 10167 10165 10162 10158 10155 10154 10153 10151 10148 10146 10145 10145 10142 10138 10136 10136 10135 10133 10131 10129 10130 10131 10131 10130 10127 10125 10126 10127 10126 10125 10125 10126 10127 10126 10126 10127 10127 10127 10127 10128 10129
10240 10239 10238 10237 10236 10234 10232 10232 10232 10231 10229 10228 10227 10225 10224 10223 10222 10221 10220 10219 10218 10216 10214 10212 10210 10207 10204 10204 10204 10201 10197 10195 10194 10192 10190 10189 10186 10184 10181 10177 10174 10171 10169 10166 10163 10161 10158 10156 10153 10149 10146 10145 10143 10141 10139 10136 10135 10134 10132 10129 10128 10127 10125 10124 10123 10123 10122 10122 10123 10122 10120 10119 10118 10118 10119 10119 10118 10119 10119 10119 10119 10120 10120 10120 10121 10122 10123
10234 10233 10232 10230 10229 10228 10226 10226 10225 10224 10223 10222 10221 10219 10218 10217 10215 10214 10213 10213 10212 10210 10209 10207 10205 10202 10200 10198 10197 10195 10191 10189 10186 10185 10184 10181 10178 10177 10174 10170 10166 10163 10161 10159 10156 10152 10150 10148 10144 10141 10138 10136 10133 10132 10130 10128 10127 10125 10123 10121 10120 10119 10117 10116 10116 10116 10115 10115 10114 10113 10112 10112 10111 10111 10112 10112 10112 10111 10112 10112 10113 10114 10114 10114 10115 10115 10117
10229 10228 10227 10225 10224 10223 10222 10221 10220 10218 10217 10217 10216 10214 10212 10210 10209 10208 10208 10207 10206 10205 10203 10201 10200 10197 10195 10193 10191 10189 10186 10183 10180 10179 10178 10175 10171 10169 10167 10163 10159 10155 10152 10150 10148 10144 10141 10139 10136 10132 10130 10128 10125 10123 10122 10120 10118 10116 10114 10114 10114 10112 10111 10110 10109 10109 10108 10107 10106 10105 10105 10105 10106 10106 10106 10105 10105 10105 10105 10106 10107 10108 10108 10108 10108 10110 10112
10225 10224 10222 10221 10219 10218 10217 10216 10214 10213 10212 10211 10210 10209 10207 10205 10202 10202 10201 10201 10200 10199 10198 10195 10194 10192 10189 10187 10186 10183 10180 10177 10173 10171 10170 10168 10164 10161 10159 10156 10152 10147 10143 10141 10139 10136 10133 10131 10128 10124 10121 10119 10117 10116 10114 10112 10111 10108 10107 10106 10107 10106 10105 10104 10103 10102 10101 10100 10099 10098 10098 10099 10099 10100 10099 10099 10099 10099 10100 10101 10101 10102 10102 10102 10103 10105 10108
10221 10220 10219 10217 10215 10213 10212 10211 10209 10208 10206 10205 10204 10204 10203 10200 10198 10197 10196 10195 10195 10194 10191 10189 10189 10187 10183 10181 10180 10178 10175 10172 10168 10165 10164 10162 10158 10154 10151 10147 10144 10140 10136 10133 10131 10128 10124 10122 10120 10116 10113 10111 10110 10109 10107 10105 10104 10102 10100 10100 10100 10100 10099 10098 10096 10094 10093 10093 10093 10092 10092 10093 10093 10093 10093 10093 10093 10094 10095 10095 10096 10096 10096 10097 10099 10101 10104
10218 10216 10215 10213 10211 10209 10208 10207 10205 10203 10202 10201 10199 10198 10197 10195 10193 10191 10190 10189 10189 10188 10185 10184 10183 10182 10178 10175 10174 10172 10170 10167 10163 10160 10158 10156 10152 10147 10143 10140 10136 10132 10128 10126 10123 10120 10117 10114 10112 10109 10107 10105 10104 10102 10100 10099 10098 10096 10095 10094 10094 10094 10092 10090 10089 10088 10087 10087 10087 10087 10087 10087 10088 10088 10088 10088 10088 10089 10089 10090 10090 10091 10092 10093 10095 10098 10101
10214 10213 10212 10210 10208 10206 10204 10203 10200 10199 10198 10196 10195 10193 10192 10190 10188 10186 10184 10184 10183 10181 10178 10177 10176 10175 10173 10170 10167 10165 10163 10160 10157 10154 10150 10148 10144 10140 10136 10132 10128 10124 10121 10118 10115 10112 10109 10107 10105 10103 10101 10099 10096 10094 10093 10092 10091 10090 10090 10089 10089 10087 10085 10083 10082 10082 10082 10082 10082 10082 10082 10083 10083 10083 10083 10083 10083 10084 10085 10085 10085 10086 10088 10090 10092 10095 10097
10210 10209 10208 10207 10205 10203 10201 10199 10197 10196 10194 10192 10191 10190 10188 10186 10184 10182 10180 10180 10179 10176 10172 10170 10168 10167 10165 10163 10160 10158 10155 10153 10151 10147 10143 10140 10136 10132 10128 10125 10121 10117 10114 10111 10108 10105 10103 10101 10099 10097 10095 10092 10090 10088 10086 10086 10085 10085 10084 10084 10082 10081 10079 10078 10077 10078 10078 10078 10078 10078 10078 10078 10078 10078 10079 10079 10079 10080 10080 10080 10081 10083 10085 10087 10089 10091 10093
10205 10204 10203 10202 10201 10199 10198 10196 10193 10192 10190 10188 10187 10186 10184 10182 10180 10178 10176 10176 10175 10172 10168 10166 10163 10162 10160 10157 10154 10151 10148 10145 10143 10140 10136 10132 10129 10125 10121 10118 10114 10110 10107 10104 10100 10098 10097 10095 10094 10092 10089 10086 10084 10082 10081 10081 10081 10079 10078 10077 10076 10075 10074 10073 10073 10073 10073 10073 10074 10074 10074 10074 10074 10074 10074 10075 10076 10076 10076 10077 10078 10080 10082 10084 10085 10086 10088
10203 10201 10199 10198 10196 10195 10193 10192 10190 10188 10186 10185 10184 10183 10181 10179 10178 10175 10173 10173 10171 10168 10165 10162 10159 10156 10154 10151 10148 10145 10142 10139 10136 10133 10129 10125 10122 10118 10114 10111 10107 10103 10100 10097 10094 10093 10091 10090 10088 10086 10083 10081 10078 10077 10077 10077 10076 10074 10073 10072 10071 10070 10069 10069 10069 10069 10069 10069 10070 10070 10070 10070 10070 10070 10071 10071 10072 10072 10073 10074 10075 10076 10078 10079 10081 10083 10085
10200 10198 10196 10194 10192 10190 10189 10188 10186 10185 10183 10181 10179 10178 10176 10175 10174 10171 10168 10167 10166 10162 10159 10156 10153 10150 10147 10144 10142 10139 10135 10132 10130 10126 10122 10118 10115 10111 10107 10104 10101 10097 10094 10092 10090 10088 10086 10084 10082 10080 10077 10075 10073 10072 10073 10073 10071 10069 10067 10066 10065 10065 10065 10064 10064 10064 10065 10065 10066 10066 10066 10066 10066 10067 10067 10068 10069 10069 10070 10070 10071 10073 10074 10075 10077 10079 10082
10196 10194 10193 10191 10189 10187 10186 10184 10182 10180 10178 10176 10175 10172 10170 10169 10168 10165 10163 10161 10160 10157 10154 10151 10148 10146 10143 10139 10136 10133 10130 10126 10123 10119 10115 10111 10109 10105 10101 10098 10094 10091 10088 10086 10085 10083 10081 10079 10077 10074 10072 10070 10069 10068 10068 10068 10066 10064 10062 10061 10060 10060 10060 10060 10060 10060 10061 10061 10062 10062 10062 10062 10063 10063 10063 10064 10065 10066 10066 10067 10068 10069 10070 10072 10074 10076 10078
10192 10190 10189 10187 10185 10184 10183 10182 10179 10177 10175 10173 10171 10169 10166 10164 10162 10160 10158 10156 10154 10152 10149 10146 10143 10140 10137 10133 10130 10127 10124 10120 10117 10113 10109 10105 10102 10099 10095 10092 10089 10085 10083 10082 10080 10078 10076 10075 10072 10069 10066 10065 10064 10064 10064 10063 10061 10059 10057 10056 10055 10056 10056 10056 10056 10057 10057 10057 10058 10058 10059 10059 10059 10059 10060 10061 10062 10063 10063 10064 10065 10066 10067 10068 10070 10073 10074
10189 10187 10185 10184 10182 10180 10179 10178 10176 10174 10172 10170 10168 10166 10164 10161 10158 10156 10154 10151 10148 10145 10143 10140 10136 10134 10131 10127 10123 10120 10117 10114 10111 10107 10104 10100 10096 10093 10089 10087 10083 10080 10078 10077 10075 10073 10072 10070 10068 10064 10062 10061 10060 10060 10059 10058 10056 10054 10052 10051 10051 10051 10052 10052 10053 10053 10054 10053 10054 10054 10055 10056 10056 10056 10057 10057 10058 10060 10060 10061 10062 10063 10064 10066 10068 10070 10071
10186 10185 10183 10181 10179 10177 10175 10174 10172 10170 10169 10166 10164 10162 10160 10158 10155 10152 10149 10147 10145 10142 10138 10135 10131 10128 10125 10122 10118 10115 10112 10108 10105 10102 10099 10095 10091 10088 10085 10082 10079 10076 10074 10073 10071 10069 10067 10066 10064 10061 10058 10057 10057 10056 10054 10053 10051 10050 10048 10048 10047 10048 10048 10049 10049 10050 10050 10050 10050 10051 10052 10052 10053 10053 10054 10055 10055 10056 10057 10058 10059 10060 10061 10062 10064 10066 10068
10182 10181 10180 10177 10175 10174 10172 10170 10168 10166 10164 10163 10160 10158 10156 10154 10151 10148 10145 10143 10140 10137 10134 10131 10127 10123 10119 10116 10113 10110 10107 10104 10099 10096 10093 10090 10086 10083 10080 10077 10075 10072 10070 10068 10066 10064 10063 10062 10060 10057 10055 10053 10053 10052 10050 10048 10047 10046 10045 10044 10044 10044 10045 10046 10046 10046 10047 10047 10047 10048 10048 10049 10050 10050 10051 10052 10052 10053 10054 10054 10055 10056 10057 10058 10060 10062 10064
10179 10178 10177 10174 10172 10171 10169 10167 10164 10161 10160 10158 10156 10153 10151 10150 10147 10145 10142 10139 10136 10133 10130 10126 10122 10118 10115 10111 10108 10104 10102 10099 10095 10091 10088 10085 10082 10078 10076 10073 10071 10068 10066 10064 10062 10060 10059 10058 10056 10054 10051 10050 10049 10048 10046 10045 10044 10043 10042 10041 10041 10041 10042 10042 10042 10043 10043 10043 10044 10045 10045 10046 10046 10047 10048 10048 10049 10050 10050 10051 10052 10053 10053 10054 10056 10058 10060
10175 10174 10174 10172 10169 10167 10165 10163 10160 10157 10155 10153 10151 10149 10147 10145 10142 10139 10137 10134 10131 10128 10125 10121 10117 10113 10110 10107 10103 10099 10096 10093 10090 10086 10083 10080 10077 10074 10072 10070 10067 10064 10062 10060 10058 10057 10055 10054 10052 10050 10048 10046 10045 10044 10042 10041 10040 10040 10039 10038 10038 10038 10038 10038 10038 10039 10039 10040 10040 10041 10041 10042 10043 10043 10044 10045 10045 10046 10047 10048 10048 10049 10050 10051 10052 10053 10055
10171 10169 10169 10168 10166 10164 10161 10159 10156 10153 10150 10148 10146 10144 10142 10140 10137 10134 10131 10128 10125 10122 10119 10116 10112 10108 10105 10102 10098 10094 10091 10089 10086 10082 10078 10075 10072 10070 10068 10065 10063 10060 10058 10056 10054 10053 10051 10050 10048 10047 10045 10043 10041 10040 10039 10038 10037 10037 10036 10035 10035 10034 10034 10034 10035 10035 10035 10036 10036 10037 10038 10038 10039 10040 10040 10041 10042 10042 10043 10044 10045 10045 10046 10047 10048 10049 10050